Time,TemperatureF,DewpointF,PressureIn,WindDirection,WindDirectionDegrees,WindSpeedMPH,WindSpeedGustMPH,Humidity,HourlyPrecipIn,Conditions,Clouds,dailyrainin,SoftwareType,DateUTC
2013-06-28 00:00:00,90.4,43.9,29.58,SSE,158,1.0,5.0,20,0.00,,,0.00,Wunderground v.1.15,2013-06-28 06:00:00,
2013-06-28 00:05:00,90.4,43.9,29.58,SE,136,0.0,5.0,20,0.00,,,0.00,Wunderground v.1.15,2013-06-28 06:05:00,
2013-06-28 00:15:00,90.2,43.7,29.58,SE,137,0.0,0.0,20,0.00,,,0.00,Wunderground v.1.15,2013-06-28 06:15:00,
2013-06-28 00:25:00,89.9,43.5,29.58,East,99,0.0,1.0,20,0.00,,,0.00,Wunderground v.1.15,2013-06-28 06:25:00,
2013-06-28 00:30:00,89.9,43.5,29.58,ESE,115,0.0,0.0,20,0.00,,,0.00,Wunderground v.1.15,2013-06-28 06:30:00,
2013-06-28 00:35:00,89.8,43.4,29.58,SSE,152,0.0,0.0,20,0.00,,,0.00,Wunderground v.1.15,2013-06-28 06:35:00,
2013-06-28 00:40:00,89.7,43.3,29.58,SSE,157,1.0,1.0,20,0.00,,,0.00,Wunderground v.1.15,2013-06-28 06:40:00,
2013-06-28 00:45:00,89.7,43.3,29.58,ESE,115,1.0,1.0,20,0.00,,,0.00,Wunderground v.1.15,2013-06-28 06:45:00,
2013-06-28 00:55:00,89.5,43.1,29.58,SSE,153,0.0,2.0,20,0.00,,,0.00,Wunderground v.1.15,2013-06-28 06:55:00,
2013-06-28 01:05:00,89.3,43.0,29.59,ESE,118,1.0,1.0,20,0.00,,,0.00,Wunderground v.1.15,2013-06-28 07:05:00,
2013-06-28 01:15:00,89.2,42.9,29.59,SE,139,1.0,2.0,20,0.00,,,0.00,Wunderground v.1.15,2013-06-28 07:15:00,
2013-06-28 01:20:00,89.1,42.8,29.59,SE,140,1.0,1.0,20,0.00,,,0.00,Wunderground v.1.15,2013-06-28 07:20:00,
2013-06-28 01:30:00,88.9,41.3,29.59,ESE,118,0.0,3.0,19,0.00,,,0.00,Wunderground v.1.15,2013-06-28 07:30:00,
2013-06-28 01:35:00,88.8,41.2,29.58,SE,133,0.0,3.0,19,0.00,,,0.00,Wunderground v.1.15,2013-06-28 07:35:00,
2013-06-28 01:40:00,88.7,41.1,29.58,SE,132,0.0,0.0,19,0.00,,,0.00,Wunderground v.1.15,2013-06-28 07:40:00,
2013-06-28 01:45:00,88.5,41.0,29.58,ESE,123,0.0,0.0,19,0.00,,,0.00,Wunderground v.1.15,2013-06-28 07:45:00,
2013-06-28 01:50:00,88.3,40.8,29.58,SSE,150,0.0,3.0,19,0.00,,,0.00,Wunderground v.1.15,2013-06-28 07:50:00,
2013-06-28 01:55:00,88.2,42.1,29.58,SE,132,0.0,3.0,20,0.00,,,0.00,Wunderground v.1.15,2013-06-28 07:55:00,
2013-06-28 02:00:00,88.0,41.9,29.58,SE,146,0.0,0.0,20,0.00,,,0.00,Wunderground v.1.15,2013-06-28 08:00:00,
2013-06-28 02:05:00,87.8,41.7,29.57,ESE,122,0.0,0.0,20,0.00,,,0.00,Wunderground v.1.15,2013-06-28 08:05:00,
2013-06-28 02:15:00,87.5,42.8,29.57,SE,126,0.0,0.0,21,0.00,,,0.00,Wunderground v.1.15,2013-06-28 08:15:00,
2013-06-28 02:25:00,87.1,42.4,29.58,SE,145,0.0,0.0,21,0.00,,,0.00,Wunderground v.1.15,2013-06-28 08:25:00,
2013-06-28 02:30:00,86.8,43.4,29.58,SSE,148,0.0,0.0,22,0.00,,,0.00,Wunderground v.1.15,2013-06-28 08:30:00,
2013-06-28 02:40:00,86.6,43.2,29.58,SSE,149,1.0,9.0,22,0.00,,,0.00,Wunderground v.1.15,2013-06-28 08:40:00,
2013-06-28 02:45:00,86.7,43.3,29.58,SE,142,1.0,9.0,22,0.00,,,0.00,Wunderground v.1.15,2013-06-28 08:45:00,
2013-06-28 02:50:00,86.6,43.2,29.58,SE,125,1.0,1.0,22,0.00,,,0.00,Wunderground v.1.15,2013-06-28 08:50:00,
2013-06-28 02:55:00,86.6,43.2,29.58,SE,131,0.0,1.0,22,0.00,,,0.00,Wunderground v.1.15,2013-06-28 08:55:00,
2013-06-28 03:00:00,86.6,43.2,29.58,SE,130,0.0,0.0,22,0.00,,,0.00,Wunderground v.1.15,2013-06-28 09:00:00,
2013-06-28 03:05:00,86.6,43.2,29.58,SE,139,0.0,0.0,22,0.00,,,0.00,Wunderground v.1.15,2013-06-28 09:05:00,
2013-06-28 03:15:00,86.5,43.1,29.58,East,101,0.0,2.0,22,0.00,,,0.00,Wunderground v.1.15,2013-06-28 09:15:00,
2013-06-28 03:25:00,86.6,43.2,29.58,ESE,119,0.0,0.0,22,0.00,,,0.00,Wunderground v.1.15,2013-06-28 09:25:00,
2013-06-28 03:30:00,86.6,43.2,29.58,SE,130,1.0,1.0,22,0.00,,,0.00,Wunderground v.1.15,2013-06-28 09:30:00,
2013-06-28 03:35:00,86.7,43.3,29.58,SE,141,0.0,1.0,22,0.00,,,0.00,Wunderground v.1.15,2013-06-28 09:35:00,
2013-06-28 03:45:00,86.6,43.2,29.59,SE,142,0.0,0.0,22,0.00,,,0.00,Wunderground v.1.15,2013-06-28 09:45:00,
2013-06-28 03:50:00,86.4,43.1,29.59,SE,141,0.0,0.0,22,0.00,,,0.00,Wunderground v.1.15,2013-06-28 09:50:00,
2013-06-28 03:55:00,86.3,43.0,29.59,SSE,148,0.0,1.0,22,0.00,,,0.00,Wunderground v.1.15,2013-06-28 09:55:00,
2013-06-28 04:00:00,86.2,42.9,29.60,SE,134,0.0,0.0,22,0.00,,,0.00,Wunderground v.1.15,2013-06-28 10:00:00,
2013-06-28 04:05:00,86.1,42.8,29.60,SSE,148,0.0,1.0,22,0.00,,,0.00,Wunderground v.1.15,2013-06-28 10:05:00,
2013-06-28 04:15:00,85.8,42.6,29.60,SE,130,0.0,0.0,22,0.00,,,0.00,Wunderground v.1.15,2013-06-28 10:15:00,
2013-06-28 04:20:00,85.5,42.3,29.60,SSE,148,1.0,1.0,22,0.00,,,0.00,Wunderground v.1.15,2013-06-28 10:20:00,
2013-06-28 04:25:00,85.4,42.2,29.61,SE,133,1.0,1.0,22,0.00,,,0.00,Wunderground v.1.15,2013-06-28 10:25:00,
2013-06-28 04:35:00,85.2,43.2,29.60,SE,128,1.0,1.0,23,0.00,,,0.00,Wunderground v.1.15,2013-06-28 10:35:00,
2013-06-28 04:40:00,85.1,43.1,29.60,SE,133,1.0,1.0,23,0.00,,,0.00,Wunderground v.1.15,2013-06-28 10:40:00,
2013-06-28 04:45:00,85.0,43.0,29.60,SE,130,1.0,1.0,23,0.00,,,0.00,Wunderground v.1.15,2013-06-28 10:45:00,
2013-06-28 04:50:00,84.9,43.0,29.60,SSE,147,1.0,1.0,23,0.00,,,0.00,Wunderground v.1.15,2013-06-28 10:50:00,
2013-06-28 04:55:00,84.9,43.0,29.61,SE,145,0.0,5.0,23,0.00,,,0.00,Wunderground v.1.15,2013-06-28 10:55:00,
2013-06-28 05:00:00,84.8,42.9,29.61,SE,135,0.0,0.0,23,0.00,,,0.00,Wunderground v.1.15,2013-06-28 11:00:00,
2013-06-28 05:05:00,84.6,42.7,29.61,SE,138,0.0,0.0,23,0.00,,,0.00,Wunderground v.1.15,2013-06-28 11:05:00,
2013-06-28 05:15:00,84.4,43.7,29.63,SE,144,0.0,1.0,24,0.00,,,0.00,Wunderground v.1.15,2013-06-28 11:15:00,
2013-06-28 05:25:00,84.2,43.5,29.62,SE,144,0.0,0.0,24,0.00,,,0.00,Wunderground v.1.15,2013-06-28 11:25:00,
2013-06-28 05:35:00,84.0,43.3,29.63,ESE,111,0.0,0.0,24,0.00,,,0.00,Wunderground v.1.15,2013-06-28 11:35:00,
2013-06-28 05:40:00,83.9,43.2,29.63,ESE,116,0.0,0.0,24,0.00,,,0.00,Wunderground v.1.15,2013-06-28 11:40:00,
2013-06-28 05:45:00,83.9,43.2,29.63,SE,138,0.0,0.0,24,0.00,,,0.00,Wunderground v.1.15,2013-06-28 11:45:00,
2013-06-28 05:50:00,84.0,43.3,29.63,SE,140,0.0,0.0,24,0.00,,,0.00,Wunderground v.1.15,2013-06-28 11:50:00,
2013-06-28 05:55:00,84.1,43.4,29.63,SSE,155,1.0,3.0,24,0.00,,,0.00,Wunderground v.1.15,2013-06-28 11:55:00,
2013-06-28 06:00:00,84.4,43.7,29.63,SE,131,1.0,1.0,24,0.00,,,0.00,Wunderground v.1.15,2013-06-28 12:00:00,
2013-06-28 06:05:00,84.7,43.9,29.65,SE,132,1.0,1.0,24,0.00,,,0.00,Wunderground v.1.15,2013-06-28 12:05:00,
2013-06-28 06:15:00,84.9,44.1,29.67,ESE,114,0.0,0.0,24,0.00,,,0.00,Wunderground v.1.15,2013-06-28 12:15:00,
2013-06-28 06:20:00,84.9,44.1,29.67,East,96,0.0,0.0,24,0.00,,,0.00,Wunderground v.1.15,2013-06-28 12:20:00,
2013-06-28 06:25:00,84.8,44.0,29.67,SE,132,0.0,0.0,24,0.00,,,0.00,Wunderground v.1.15,2013-06-28 12:25:00,
2013-06-28 06:35:00,85.1,44.2,29.68,SE,145,1.0,2.0,24,0.00,,,0.00,Wunderground v.1.15,2013-06-28 12:35:00,
2013-06-28 06:40:00,85.4,44.5,29.68,ESE,122,1.0,1.0,24,0.00,,,0.00,Wunderground v.1.15,2013-06-28 12:40:00,
2013-06-28 06:45:00,85.5,44.6,29.68,ESE,121,0.0,1.0,24,0.00,,,0.00,Wunderground v.1.15,2013-06-28 12:45:00,
2013-06-28 06:50:00,85.5,44.6,29.69,ESE,107,0.0,0.0,24,0.00,,,0.00,Wunderground v.1.15,2013-06-28 12:50:00,
2013-06-28 06:55:00,85.4,44.5,29.69,SE,144,0.0,0.0,24,0.00,,,0.00,Wunderground v.1.15,2013-06-28 12:55:00,
2013-06-28 07:00:00,85.4,44.5,29.70,ESE,102,0.0,0.0,24,0.00,,,0.00,Wunderground v.1.15,2013-06-28 13:00:00,
2013-06-28 07:05:00,85.1,44.2,29.71,East,98,0.0,0.0,24,0.00,,,0.00,Wunderground v.1.15,2013-06-28 13:05:00,
2013-06-28 07:15:00,84.8,45.1,29.70,ESE,117,0.0,0.0,25,0.00,,,0.00,Wunderground v.1.15,2013-06-28 13:15:00,
2013-06-28 07:25:00,85.0,46.3,29.71,SE,140,0.0,0.0,26,0.00,,,0.00,Wunderground v.1.15,2013-06-28 13:25:00,
2013-06-28 07:30:00,84.9,46.2,29.72,SE,140,0.0,0.0,26,0.00,,,0.00,Wunderground v.1.15,2013-06-28 13:30:00,
2013-06-28 07:35:00,84.9,45.1,29.72,SE,140,0.0,0.0,25,0.00,,,0.00,Wunderground v.1.15,2013-06-28 13:35:00,
2013-06-28 07:45:00,84.8,48.1,29.71,SE,140,0.0,0.0,28,0.00,,,0.00,Wunderground v.1.15,2013-06-28 13:45:00,
2013-06-28 07:50:00,84.7,48.0,29.72,SE,140,0.0,0.0,28,0.00,,,0.00,Wunderground v.1.15,2013-06-28 13:50:00,
2013-06-28 07:55:00,84.6,46.9,29.73,SE,140,0.0,0.0,27,0.00,,,0.00,Wunderground v.1.15,2013-06-28 13:55:00,
2013-06-28 08:00:00,84.3,43.6,29.73,ESE,117,0.0,0.0,24,0.00,,,0.00,Wunderground v.1.15,2013-06-28 14:00:00,
2013-06-28 08:05:00,84.2,44.6,29.75,ESE,107,0.0,0.0,25,0.00,,,0.00,Wunderground v.1.15,2013-06-28 14:05:00,
2013-06-28 08:15:00,84.1,44.5,29.76,ESE,107,0.0,0.0,25,0.00,,,0.00,Wunderground v.1.15,2013-06-28 14:15:00,
2013-06-28 08:20:00,84.2,47.6,29.76,ESE,107,0.0,0.0,28,0.00,,,0.00,Wunderground v.1.15,2013-06-28 14:20:00,
2013-06-28 08:25:00,84.2,47.6,29.77,ESE,106,0.0,0.0,28,0.00,,,0.00,Wunderground v.1.15,2013-06-28 14:25:00,
2013-06-28 08:35:00,84.4,48.7,29.76,ESE,106,0.0,0.0,29,0.00,,,0.00,Wunderground v.1.15,2013-06-28 14:35:00,
2013-06-28 08:40:00,84.4,46.8,29.76,ESE,107,0.0,0.0,27,0.00,,,0.00,Wunderground v.1.15,2013-06-28 14:40:00,
2013-06-28 08:45:00,84.5,46.8,29.77,ESE,107,0.0,0.0,27,0.00,,,0.00,Wunderground v.1.15,2013-06-28 14:45:00,
2013-06-28 08:50:00,84.6,47.9,29.76,ESE,106,0.0,0.0,28,0.00,,,0.00,Wunderground v.1.15,2013-06-28 14:50:00,
2013-06-28 08:55:00,84.9,47.2,29.76,ESE,107,0.0,0.0,27,0.00,,,0.00,Wunderground v.1.15,2013-06-28 14:55:00,
2013-06-28 09:00:00,85.1,46.4,29.77,ESE,106,0.0,0.0,26,0.00,,,0.00,Wunderground v.1.15,2013-06-28 15:00:00,
2013-06-28 09:05:00,85.4,47.6,29.79,ESE,107,0.0,0.0,27,0.00,,,0.00,Wunderground v.1.15,2013-06-28 15:05:00,
2013-06-28 09:15:00,86.0,45.0,29.79,East,93,0.0,0.0,24,0.00,,,0.00,Wunderground v.1.15,2013-06-28 15:15:00,
2013-06-28 09:25:00,86.6,46.6,29.78,East,93,0.0,0.0,25,0.00,,,0.00,Wunderground v.1.15,2013-06-28 15:25:00,
2013-06-28 09:30:00,86.8,44.6,29.78,East,88,0.0,0.0,23,0.00,,,0.00,Wunderground v.1.15,2013-06-28 15:30:00,
2013-06-28 09:40:00,87.2,46.0,29.79,North,9,0.0,0.0,24,0.00,,,0.00,Wunderground v.1.15,2013-06-28 15:40:00,
2013-06-28 09:45:00,87.3,46.1,29.79,North,9,0.0,0.0,24,0.00,,,0.00,Wunderground v.1.15,2013-06-28 15:45:00,
2013-06-28 09:50:00,87.4,45.1,29.80,NNE,21,0.0,0.0,23,0.00,,,0.00,Wunderground v.1.15,2013-06-28 15:50:00,
2013-06-28 10:00:00,87.5,45.1,29.80,North,360,0.0,3.0,23,0.00,,,0.00,Wunderground v.1.15,2013-06-28 16:00:00,
2013-06-28 10:05:00,88.0,44.4,29.82,NW,319,0.0,3.0,22,0.00,,,0.00,Wunderground v.1.15,2013-06-28 16:05:00,
2013-06-28 10:15:00,89.0,45.2,29.82,ENE,63,1.0,1.0,22,0.00,,,0.00,Wunderground v.1.15,2013-06-28 16:15:00,
2013-06-28 10:20:00,88.9,45.1,29.82,ENE,71,1.0,1.0,22,0.00,,,0.00,Wunderground v.1.15,2013-06-28 16:20:00,
2013-06-28 10:30:00,88.9,43.9,29.82,ENE,74,0.0,0.0,21,0.00,,,0.00,Wunderground v.1.15,2013-06-28 16:30:00,
2013-06-28 10:35:00,89.5,45.6,29.81,ENE,58,0.0,0.0,22,0.00,,,0.00,Wunderground v.1.15,2013-06-28 16:35:00,
2013-06-28 10:40:00,90.5,46.5,29.81,ENE,76,0.0,0.0,22,0.00,,,0.00,Wunderground v.1.15,2013-06-28 16:40:00,
2013-06-28 10:50:00,92.8,45.8,29.79,ENE,73,0.0,0.0,20,0.00,,,0.00,Wunderground v.1.15,2013-06-28 16:50:00,
2013-06-28 11:00:00,93.7,45.2,29.79,ENE,73,0.0,0.0,19,0.00,,,0.00,Wunderground v.1.15,2013-06-28 17:00:00,
2013-06-28 11:05:00,94.0,44.0,29.77,ESE,105,0.0,0.0,18,0.00,,,0.00,Wunderground v.1.15,2013-06-28 17:05:00,
2013-06-28 11:15:00,94.2,44.2,29.77,ESE,105,0.0,0.0,18,0.00,,,0.00,Wunderground v.1.15,2013-06-28 17:15:00,
2013-06-28 11:20:00,94.4,47.1,29.77,SW,224,0.0,0.0,20,0.00,,,0.00,Wunderground v.1.15,2013-06-28 17:20:00,
2013-06-28 11:25:00,94.4,45.8,29.77,SW,223,0.0,0.0,19,0.00,,,0.00,Wunderground v.1.15,2013-06-28 17:25:00,
2013-06-28 11:30:00,94.3,47.1,29.77,NE,44,0.0,0.0,20,0.00,,,0.00,Wunderground v.1.15,2013-06-28 17:30:00,
2013-06-28 11:40:00,94.0,46.8,29.77,NE,52,0.0,0.0,20,0.00,,,0.00,Wunderground v.1.15,2013-06-28 17:40:00,
2013-06-28 11:45:00,94.0,45.5,29.77,NE,42,0.0,0.0,19,0.00,,,0.00,Wunderground v.1.15,2013-06-28 17:45:00,
2013-06-28 11:55:00,94.5,47.2,29.76,NE,34,0.0,0.0,20,0.00,,,0.00,Wunderground v.1.15,2013-06-28 17:55:00,
2013-06-28 12:00:00,94.9,46.2,29.76,NE,44,0.0,0.0,19,0.00,,,0.00,Wunderground v.1.15,2013-06-28 18:00:00,
2013-06-28 12:05:00,95.2,45.0,29.76,NE,44,0.0,0.0,18,0.00,,,0.00,Wunderground v.1.15,2013-06-28 18:05:00,
2013-06-28 12:15:00,96.3,45.9,29.75,North,5,0.0,0.0,18,0.00,,,0.00,Wunderground v.1.15,2013-06-28 18:15:00,
2013-06-28 12:20:00,96.9,44.9,29.74,SSE,157,0.0,2.0,17,0.00,,,0.00,Wunderground v.1.15,2013-06-28 18:20:00,
2013-06-28 12:25:00,98.0,44.2,29.74,SE,140,0.0,5.0,16,0.00,,,0.00,Wunderground v.1.15,2013-06-28 18:25:00,
2013-06-28 12:30:00,98.7,44.7,29.73,SSE,152,1.0,1.0,16,0.00,,,0.00,Wunderground v.1.15,2013-06-28 18:30:00,
2013-06-28 12:35:00,99.4,45.3,29.72,SE,138,1.0,1.0,16,0.00,,,0.00,Wunderground v.1.15,2013-06-28 18:35:00,
2013-06-28 12:40:00,100.1,45.8,29.72,ESE,122,0.0,0.0,16,0.00,,,0.00,Wunderground v.1.15,2013-06-28 18:40:00,
2013-06-28 12:45:00,100.7,46.3,29.72,ESE,122,1.0,1.0,16,0.00,,,0.00,Wunderground v.1.15,2013-06-28 18:45:00,
2013-06-28 12:50:00,101.0,46.6,29.71,SE,130,1.0,1.0,16,0.00,,,0.00,Wunderground v.1.15,2013-06-28 18:50:00,
2013-06-28 12:55:00,101.3,46.8,29.71,SE,138,0.0,1.0,16,0.00,,,0.00,Wunderground v.1.15,2013-06-28 18:55:00,
2013-06-28 13:00:00,101.7,47.1,29.70,ESE,119,0.0,0.0,16,0.00,,,0.00,Wunderground v.1.15,2013-06-28 19:00:00,
2013-06-28 13:10:00,102.2,45.8,29.71,ESE,120,0.0,0.0,15,0.00,,,0.00,Wunderground v.1.15,2013-06-28 19:10:00,
2013-06-28 13:20:00,102.1,45.7,29.70,ESE,121,1.0,1.0,15,0.00,,,0.00,Wunderground v.1.15,2013-06-28 19:20:00,
2013-06-28 13:25:00,101.9,45.6,29.70,SSE,151,2.0,2.0,15,0.00,,,0.00,Wunderground v.1.15,2013-06-28 19:25:00,
2013-06-28 13:30:00,101.8,45.5,29.70,SE,146,1.0,5.0,15,0.00,,,0.00,Wunderground v.1.15,2013-06-28 19:30:00,
2013-06-28 13:35:00,101.7,47.1,29.69,SE,136,1.0,5.0,16,0.00,,,0.00,Wunderground v.1.15,2013-06-28 19:35:00,
2013-06-28 13:40:00,102.1,45.7,29.69,SE,130,1.0,1.0,15,0.00,,,0.00,Wunderground v.1.15,2013-06-28 19:40:00,
2013-06-28 13:45:00,102.6,46.1,29.69,SE,130,0.0,1.0,15,0.00,,,0.00,Wunderground v.1.15,2013-06-28 19:45:00,
2013-06-28 13:55:00,103.4,46.7,29.68,SE,145,1.0,2.0,15,0.00,,,0.00,Wunderground v.1.15,2013-06-28 19:55:00,
2013-06-28 14:00:00,102.7,46.2,29.68,ESE,111,1.0,1.0,15,0.00,,,0.00,Wunderground v.1.15,2013-06-28 20:00:00,
2013-06-28 14:05:00,102.2,45.8,29.69,SSE,154,1.0,1.0,15,0.00,,,0.00,Wunderground v.1.15,2013-06-28 20:05:00,
2013-06-28 14:15:00,101.9,47.3,29.68,SE,142,1.0,7.0,16,0.00,,,0.00,Wunderground v.1.15,2013-06-28 20:15:00,
2013-06-28 14:25:00,102.2,45.8,29.68,ESE,109,0.0,1.0,15,0.00,,,0.00,Wunderground v.1.15,2013-06-28 20:25:00,
2013-06-28 14:35:00,101.9,47.3,29.67,ENE,71,0.0,1.0,16,0.00,,,0.00,Wunderground v.1.15,2013-06-28 20:35:00,
2013-06-28 14:40:00,101.6,47.0,29.68,East,91,0.0,0.0,16,0.00,,,0.00,Wunderground v.1.15,2013-06-28 20:40:00,
2013-06-28 14:45:00,101.3,46.8,29.68,ESE,111,0.0,6.0,16,0.00,,,0.00,Wunderground v.1.15,2013-06-28 20:45:00,
2013-06-28 14:50:00,100.8,46.4,29.67,SE,140,1.0,1.0,16,0.00,,,0.00,Wunderground v.1.15,2013-06-28 20:50:00,
2013-06-28 14:55:00,100.6,46.2,29.67,ENE,77,1.0,4.0,16,0.00,,,0.00,Wunderground v.1.15,2013-06-28 20:55:00,
2013-06-28 15:00:00,100.6,46.2,29.67,SSE,147,1.0,1.0,16,0.00,,,0.00,Wunderground v.1.15,2013-06-28 21:00:00,
2013-06-28 15:05:00,100.8,46.4,29.67,SE,140,1.0,1.0,16,0.00,,,0.00,Wunderground v.1.15,2013-06-28 21:05:00,
2013-06-28 15:15:00,101.4,46.9,29.67,ENE,60,0.0,1.0,16,0.00,,,0.00,Wunderground v.1.15,2013-06-28 21:15:00,
2013-06-28 15:20:00,101.6,47.0,29.65,SSE,157,0.0,0.0,16,0.00,,,0.00,Wunderground v.1.15,2013-06-28 21:20:00,
2013-06-28 15:25:00,102.0,47.4,29.65,SE,130,0.0,1.0,16,0.00,,,0.00,Wunderground v.1.15,2013-06-28 21:25:00,
2013-06-28 15:35:00,102.1,47.4,29.65,SE,137,0.0,0.0,16,0.00,,,0.00,Wunderground v.1.15,2013-06-28 21:35:00,
2013-06-28 15:45:00,101.9,47.3,29.64,SSE,159,1.0,3.0,16,0.00,,,0.00,Wunderground v.1.15,2013-06-28 21:45:00,
2013-06-28 15:50:00,101.9,47.3,29.64,SE,129,1.0,1.0,16,0.00,,,0.00,Wunderground v.1.15,2013-06-28 21:50:00,
2013-06-28 15:55:00,101.9,47.3,29.64,SSE,159,0.0,2.0,16,0.00,,,0.00,Wunderground v.1.15,2013-06-28 21:55:00,
2013-06-28 16:00:00,101.9,48.9,29.64,SE,145,1.0,1.0,17,0.00,,,0.00,Wunderground v.1.15,2013-06-28 22:00:00,
2013-06-28 16:05:00,102.1,47.4,29.65,SE,124,1.0,1.0,16,0.00,,,0.00,Wunderground v.1.15,2013-06-28 22:05:00,
2013-06-28 16:15:00,102.5,49.4,29.64,SSE,149,1.0,3.0,17,0.00,,,0.00,Wunderground v.1.15,2013-06-28 22:15:00,
2013-06-28 16:20:00,102.6,47.8,29.64,ESE,111,1.0,5.0,16,0.00,,,0.00,Wunderground v.1.15,2013-06-28 22:20:00,
2013-06-28 16:25:00,102.3,47.6,29.64,ESE,119,1.0,5.0,16,0.00,,,0.00,Wunderground v.1.15,2013-06-28 22:25:00,
2013-06-28 16:30:00,102.1,47.4,29.64,SSE,160,1.0,1.0,16,0.00,,,0.00,Wunderground v.1.15,2013-06-28 22:30:00,
2013-06-28 16:40:00,101.7,48.7,29.64,East,86,1.0,1.0,17,0.00,,,0.00,Wunderground v.1.15,2013-06-28 22:40:00,
2013-06-28 16:50:00,101.3,48.4,29.64,SE,144,0.0,0.0,17,0.00,,,0.00,Wunderground v.1.15,2013-06-28 22:50:00,
2013-06-28 16:55:00,101.4,48.5,29.63,SE,145,0.0,0.0,17,0.00,,,0.00,Wunderground v.1.15,2013-06-28 22:55:00,
2013-06-28 17:00:00,101.4,48.5,29.63,SE,130,1.0,1.0,17,0.00,,,0.00,Wunderground v.1.15,2013-06-28 23:00:00,
2013-06-28 17:05:00,101.4,48.5,29.63,ESE,123,1.0,1.0,17,0.00,,,0.00,Wunderground v.1.15,2013-06-28 23:05:00,
2013-06-28 17:15:00,101.0,48.2,29.63,ENE,76,0.0,1.0,17,0.00,,,0.00,Wunderground v.1.15,2013-06-28 23:15:00,
2013-06-28 17:20:00,101.0,48.2,29.63,NE,49,0.0,0.0,17,0.00,,,0.00,Wunderground v.1.15,2013-06-28 23:20:00,
2013-06-28 17:25:00,100.6,47.8,29.63,NE,53,0.0,0.0,17,0.00,,,0.00,Wunderground v.1.15,2013-06-28 23:25:00,
2013-06-28 17:30:00,100.2,49.1,29.64,NE,53,0.0,0.0,18,0.00,,,0.00,Wunderground v.1.15,2013-06-28 23:30:00,
2013-06-28 17:35:00,99.6,48.6,29.63,ESE,105,0.0,0.0,18,0.00,,,0.00,Wunderground v.1.15,2013-06-28 23:35:00,
2013-06-28 17:40:00,99.4,48.4,29.63,ESE,105,0.0,0.0,18,0.00,,,0.00,Wunderground v.1.15,2013-06-28 23:40:00,
2013-06-28 17:50:00,98.6,47.8,29.63,East,87,0.0,0.0,18,0.00,,,0.00,Wunderground v.1.15,2013-06-28 23:50:00,
2013-06-28 18:00:00,98.1,48.8,29.63,ENE,59,0.0,0.0,19,0.00,,,0.00,Wunderground v.1.15,2013-06-29 00:00:00,
2013-06-28 18:05:00,97.8,47.1,29.63,SE,142,0.0,0.0,18,0.00,,,0.00,Wunderground v.1.15,2013-06-29 00:05:00,
2013-06-28 18:15:00,97.7,48.5,29.63,East,80,0.0,0.0,19,0.00,,,0.00,Wunderground v.1.15,2013-06-29 00:15:00,
2013-06-28 18:25:00,97.8,48.6,29.63,ENE,70,0.0,0.0,19,0.00,,,0.00,Wunderground v.1.15,2013-06-29 00:25:00,
2013-06-28 18:30:00,97.9,50.0,29.62,ENE,70,0.0,0.0,20,0.00,,,0.00,Wunderground v.1.15,2013-06-29 00:30:00,
2013-06-28 18:35:00,97.7,48.5,29.62,ENE,63,0.0,0.0,19,0.00,,,0.00,Wunderground v.1.15,2013-06-29 00:35:00,
2013-06-28 18:40:00,97.6,48.4,29.63,SSE,150,0.0,0.0,19,0.00,,,0.00,Wunderground v.1.15,2013-06-29 00:40:00,
2013-06-28 18:45:00,97.4,49.6,29.62,ENE,59,0.0,2.0,20,0.00,,,0.00,Wunderground v.1.15,2013-06-29 00:45:00,
2013-06-28 18:55:00,96.9,50.5,29.63,ESE,121,0.0,0.0,21,0.00,,,0.00,Wunderground v.1.15,2013-06-29 00:55:00,
2013-06-28 19:05:00,96.4,48.8,29.64,SSE,159,1.0,2.0,20,0.00,,,0.00,Wunderground v.1.15,2013-06-29 01:05:00,
2013-06-28 19:10:00,96.2,48.6,29.63,SE,129,2.0,2.0,20,0.00,,,0.00,Wunderground v.1.15,2013-06-29 01:10:00,
2013-06-28 19:15:00,96.0,48.5,29.64,ESE,118,1.0,2.0,20,0.00,,,0.00,Wunderground v.1.15,2013-06-29 01:15:00,
2013-06-28 19:20:00,95.8,48.3,29.64,ESE,103,0.0,0.0,20,0.00,,,0.00,Wunderground v.1.15,2013-06-29 01:20:00,
2013-06-28 19:25:00,95.6,48.1,29.64,East,87,0.0,0.0,20,0.00,,,0.00,Wunderground v.1.15,2013-06-29 01:25:00,
2013-06-28 19:30:00,95.5,48.0,29.64,SE,140,0.0,0.0,20,0.00,,,0.00,Wunderground v.1.15,2013-06-29 01:30:00,
2013-06-28 19:35:00,95.5,48.0,29.65,SE,137,1.0,1.0,20,0.00,,,0.00,Wunderground v.1.15,2013-06-29 01:35:00,
2013-06-28 19:40:00,95.3,47.9,29.66,East,98,1.0,1.0,20,0.00,,,0.00,Wunderground v.1.15,2013-06-29 01:40:00,
2013-06-28 19:45:00,95.1,50.3,29.67,ENE,63,0.0,1.0,22,0.00,,,0.00,Wunderground v.1.15,2013-06-29 01:45:00,
2013-06-28 19:50:00,94.0,50.6,29.67,SE,141,2.0,4.0,23,0.00,,,0.00,Wunderground v.1.15,2013-06-29 01:50:00,
2013-06-28 19:55:00,92.1,58.9,29.68,ESE,117,3.0,4.0,33,0.00,,,0.00,Wunderground v.1.15,2013-06-29 01:55:00,
2013-06-28 20:00:00,89.4,52.0,29.68,SE,138,3.0,3.0,28,0.00,,,0.00,Wunderground v.1.15,2013-06-29 02:00:00,
2013-06-28 20:06:00,88.7,48.4,29.68,SSE,149,1.0,3.0,25,0.00,,,0.00,Wunderground v.1.15,2013-06-29 02:06:00,
2013-06-28 20:15:00,89.0,49.7,29.68,South,175,0.0,1.0,26,0.00,,,0.00,Wunderground v.1.15,2013-06-29 02:15:00,
2013-06-28 20:20:00,89.0,51.7,29.68,South,175,0.0,0.0,28,0.00,,,0.00,Wunderground v.1.15,2013-06-29 02:20:00,
2013-06-28 20:25:00,89.0,52.6,29.67,South,175,0.0,0.0,29,0.00,,,0.00,Wunderground v.1.15,2013-06-29 02:25:00,
2013-06-28 20:30:00,88.8,52.4,29.67,South,175,0.0,0.0,29,0.00,,,0.00,Wunderground v.1.15,2013-06-29 02:30:00,
2013-06-28 20:40:00,88.3,52.9,29.68,South,175,0.0,0.0,30,0.00,,,0.00,Wunderground v.1.15,2013-06-29 02:40:00,
2013-06-28 20:45:00,88.0,51.8,29.69,South,175,0.0,0.0,29,0.00,,,0.00,Wunderground v.1.15,2013-06-29 02:45:00,
2013-06-28 20:50:00,87.7,51.5,29.69,South,175,0.0,0.0,29,0.00,,,0.00,Wunderground v.1.15,2013-06-29 02:50:00,
2013-06-28 20:55:00,87.4,51.2,29.69,South,175,0.0,0.0,29,0.00,,,0.00,Wunderground v.1.15,2013-06-29 02:55:00,
2013-06-28 21:00:00,87.1,52.8,29.69,South,175,0.0,0.0,31,0.00,,,0.00,Wunderground v.1.15,2013-06-29 03:00:00,
2013-06-28 21:10:00,86.5,52.3,29.68,South,175,0.0,0.0,31,0.00,,,0.00,Wunderground v.1.15,2013-06-29 03:10:00,
2013-06-28 21:15:00,86.3,52.1,29.68,South,175,0.0,0.0,31,0.00,,,0.00,Wunderground v.1.15,2013-06-29 03:15:00,
2013-06-28 21:25:00,85.6,52.4,29.68,South,175,0.0,0.0,32,0.00,,,0.00,Wunderground v.1.15,2013-06-29 03:25:00,
2013-06-28 21:30:00,85.4,51.3,29.70,South,175,0.0,0.0,31,0.00,,,0.00,Wunderground v.1.15,2013-06-29 03:30:00,
2013-06-28 21:35:00,85.2,51.1,29.70,South,175,0.0,0.0,31,0.00,,,0.00,Wunderground v.1.15,2013-06-29 03:35:00,
2013-06-28 21:45:00,85.1,51.1,29.70,South,175,0.0,0.0,31,0.00,,,0.00,Wunderground v.1.15,2013-06-29 03:45:00,
2013-06-28 21:50:00,85.0,50.1,29.70,South,175,0.0,0.0,30,0.00,,,0.00,Wunderground v.1.15,2013-06-29 03:50:00,
2013-06-28 21:55:00,85.2,49.4,29.70,SE,126,0.0,0.0,29,0.00,,,0.00,Wunderground v.1.15,2013-06-29 03:55:00,
2013-06-28 22:00:00,85.3,50.4,29.71,SE,126,0.0,0.0,30,0.00,,,0.00,Wunderground v.1.15,2013-06-29 04:00:00,
2013-06-28 22:05:00,85.4,49.5,29.68,SE,126,0.0,0.0,29,0.00,,,0.00,Wunderground v.1.15,2013-06-29 04:05:00,
2013-06-28 22:10:00,85.4,49.5,29.68,SE,126,0.0,0.0,29,0.00,,,0.00,Wunderground v.1.15,2013-06-29 04:10:00,
2013-06-28 22:15:00,85.4,50.4,29.68,SE,126,0.0,0.0,30,0.00,,,0.00,Wunderground v.1.15,2013-06-29 04:15:00,
2013-06-28 22:20:00,85.3,50.4,29.69,SE,126,0.0,0.0,30,0.00,,,0.00,Wunderground v.1.15,2013-06-29 04:20:00,
2013-06-28 22:30:00,85.0,50.1,29.68,SE,125,0.0,1.0,30,0.00,,,0.00,Wunderground v.1.15,2013-06-29 04:30:00,
2013-06-28 22:35:00,84.9,49.1,29.68,SE,136,0.0,1.0,29,0.00,,,0.00,Wunderground v.1.15,2013-06-29 04:35:00,
2013-06-28 22:40:00,84.8,49.0,29.68,SE,134,0.0,0.0,29,0.00,,,0.00,Wunderground v.1.15,2013-06-29 04:40:00,
2013-06-28 22:45:00,84.7,48.9,29.69,SE,134,0.0,0.0,29,0.00,,,0.00,Wunderground v.1.15,2013-06-29 04:45:00,
2013-06-28 22:55:00,84.5,48.8,29.68,SE,134,0.0,0.0,29,0.00,,,0.00,Wunderground v.1.15,2013-06-29 04:55:00,
2013-06-28 23:00:00,84.4,48.7,29.68,ESE,123,0.0,0.0,29,0.00,,,0.00,Wunderground v.1.15,2013-06-29 05:00:00,
2013-06-28 23:05:00,84.3,48.6,29.68,ESE,106,0.0,0.0,29,0.00,,,0.00,Wunderground v.1.15,2013-06-29 05:05:00,
2013-06-28 23:15:00,84.3,48.6,29.69,East,88,0.0,0.0,29,0.00,,,0.00,Wunderground v.1.15,2013-06-29 05:15:00,
2013-06-28 23:20:00,84.4,48.7,29.69,ENE,71,0.0,0.0,29,0.00,,,0.00,Wunderground v.1.15,2013-06-29 05:20:00,
2013-06-28 23:25:00,84.7,48.0,29.68,East,79,0.0,0.0,28,0.00,,,0.00,Wunderground v.1.15,2013-06-29 05:25:00,
2013-06-28 23:30:00,85.1,47.4,29.69,East,99,0.0,0.0,27,0.00,,,0.00,Wunderground v.1.15,2013-06-29 05:30:00,
2013-06-28 23:40:00,85.4,47.6,29.68,ESE,116,0.0,0.0,27,0.00,,,0.00,Wunderground v.1.15,2013-06-29 05:40:00,
2013-06-28 23:45:00,85.5,47.7,29.69,East,91,0.0,0.0,27,0.00,,,0.00,Wunderground v.1.15,2013-06-29 05:45:00,
2013-06-28 23:50:00,85.5,47.7,29.69,East,86,0.0,0.0,27,0.00,,,0.00,Wunderground v.1.15,2013-06-29 05:50:00,